This demonstration page uses our WeatherBlox Daily Observations layout. Learn more.

38.80484, -77.04692

Hourly Observations for April 21, 2019

Temp ( °F °C ) Dew Point ( °F °C ) Humidity (%) Winds ( mph kmh ) Pressure ( in mb ) Visibility ( mi km ) Precip ( " mm )
12:52 am 00:52 Cloudy 61 16.1 40 4.4 46 46 SW 8 13 29.83 1010 10 16.09344 0 0
1:52 am 01:52 Cloudy 60 15.6 41 5 50 50 SW 8 13 29.83 1010 10 16.09344 0 0
2:52 am 02:52 Cloudy 59 15 41 5 51 51 SW 9 15 29.83 1010 10 16.09344 0 0
3:52 am 03:52 Partly Cloudy 57 13.9 42 5.6 58 58 SSW 9 15 29.85 1011 10 16.09344 0 0
4:52 am 04:52 Mostly Clear 54 12.2 41 5 62 62 SW 8 13 29.85 1011 10 16.09344 0 0
5:52 am 05:52 Mostly Clear 53 11.7 42 5.6 66 66 SW 8 13 29.88 1012 10 16.09344 0 0
6:52 am 06:52 Mostly Sunny 52 11.1 43 6.1 72 72 SSW 6 9 29.91 1013 10 16.09344 0 0
7:52 am 07:52 Mostly Sunny 54 12.2 44 6.7 69 69 SSW 8 13 29.94 1014 10 16.09344 0 0
8:52 am 08:52 Partly Cloudy 57 13.9 45 7.2 64 64 S 8 13 29.97 1015 10 16.09344 0 0
10:52 am 10:52 Partly Cloudy 62 16.7 42 5.6 48 48 SSW 7 11 29.97 1015 10 16.09344 0 0
11:52 am 11:52 Partly Cloudy 65 18.3 42 5.6 43 43 Calm 29.97 1015 10 16.09344 0 0
12:52 pm 12:52 Partly Cloudy 67 19.4 43 6.1 42 42 VRB 5 7 29.97 1015 10 16.09344 0 0
1:52 pm 13:52 Partly Cloudy 68 20 43 6.1 40 40 E 5 7 29.97 1015 10 16.09344 0 0
2:52 pm 14:52 Partly Cloudy 67 19.4 43 6.1 42 42 ESE 5 7 29.97 1015 10 16.09344 0 0
3:52 pm 15:52 Mostly Cloudy 69 20.6 42 5.6 38 38 ESE 5 7 29.97 1015 10 16.09344 0 0
4:52 pm 16:52 Mostly Cloudy 68 20 40 4.4 36 36 Calm 29.97 1015 10 16.09344 0 0
5:52 pm 17:52 Mostly Cloudy 68 20 41 5 38 38 NNE 5 7 29.97 1015 10 16.09344 0 0
6:52 pm 18:52 Mostly Cloudy 67 19.4 45 7.2 45 45 N 9 15 30 1016 10 16.09344 0 0
7:52 pm 19:52 Mostly Cloudy 64 17.8 45 7.2 50 50 N 9 15 30.03 1017 10 16.09344 0 0
8:52 pm 20:52 Cloudy with Light Rain 64 17.8 47 8.3 54 54 NE 8 13 30.03 1017 10 16.09344 0.001 0.001
9:18 pm 21:18 Cloudy 64 17.8 46 7.8 52 52 ENE 6 9 30.06 1018 10 16.09344 0.001 0.001
9:52 pm 21:52 Cloudy 64 17.8 45 7.2 50 50 NNW 3 6 30.06 1018 10 16.09344 0.001 0.001
10:52 pm 22:52 Mostly Cloudy 63 17.2 46 7.8 54 54 NW 14 22 30.06 1018 10 16.09344 0 0
11:52 pm 23:52 Mostly Cloudy 62 16.7 46 7.8 56 56 NW 12 19 30.09 1019 10 16.09344 0 0

Powered by AerisWeather